www.pogodaiklimat.ru

Погода и климат >> Архив погоды >> Молдова >> Кишинев


АРХИВ ПОГОДЫ в Кишиневе

Время (UTC), дата Ветер
(напр.,м/с)
 
Видим.   Явления Облачность Т
(С)
Тd
(С)
f
(%)
Тe
(С)
Тes
(С)
Комфортность P
(гПа)
Po
(гПа)
Тmin
(С)
Tmax
(С)
R
(мм)
R24
(мм)
S
(см)
15 19.04 СЗ 9
{16}
20 км 8/8 600 м
[Cu med, cong]
+21.4 +1.6 27 +21 +21 комфорт 1013.6 993.9
18 19.04 С 6
{14}
20 км {метель} 4/0
[Ac trans]
+17.8 +0.9 32 +17 +17 тепло 1014.4 994.4 +21.7
21 19.04 С 4 20 км 3/0
[Ac trans]
+14.0 +2.3 45 +13 +13 тепло 1015.8 995.6
00 20.04 С 6
{13}
20 км ясно +9.8 +5.8 76 +6 +6 по сезону 1016.0 995.5
03 20.04 СЗ 7 20 км 10/0
[Ac und]
+9.1 +4.7 74 +5 +5 по сезону 1017.2 996.6
06 20.04 С 8
{13}
20 км 6/4 600 м
[Cu med, cong Ac trans]
+10.5 +4.2 65 +7 +7 по сезону 1018.5 998.0 +8.9
09 20.04 СЗ 8
{12}
20 км 4/4 600 м
[Cu med, cong]
+14.2 +3.4 48 +12 +14 тепло 1019.0 998.7
12 20.04 С 4
{12}
20 км 8/8 600 м
[Cu med, cong]
+17.8 -0.9 28 +18 +19 тепло 1018.6 998.6
15 20.04 С 6
{12}
20 км 8/8 600 м
[Cu med, cong]
+17.3 -0.9 29 +17 +17 тепло 1018.8 998.7
18 20.04 С 3 20 км 4/4 600 м
[Sc]
+15.1 -0.6 34 +15 +15 тепло 1020.2 999.9 +19.0
21 20.04 СЗ 3 20 км 9/0
[Ac trans]
+13.3 0.0 40 +12 +12 тепло 1021.1 1000.7
00 21.04 С 4 20 км 8/0
[Ac trans]
+12.3 +0.4 44 +11 +11 тепло 1020.7 1000.2
03 21.04 С 3 20 км 3/0
[Ci fib]
+11.3 +1.5 51 +10 +10 тепло 1020.1 999.6
06 21.04 С 3 20 км ясно +15.0 +2.5 43 +14 +19 тепло 1019.6 999.4 +10.9
09 21.04 СЗ 3 20 км ясно +18.9 +1.0 30 +19 +31 опасность
простуды
1018.4 998.4
12 21.04 З 5 20 км 3/0
[Ci fib]
+21.6 +1.8 27 +21 +28 комфорт 1015.5 995.8
15 21.04 З 5 20 км 3/0
[Ci fib]
+22.8 0.0 22 +22 +23 комфорт 1012.6 993.0
18 21.04 З 3 20 км 6/0
[Ci fib]
+18.4 -0.4 28 +19 +19 тепло 1011.4 991.5 +23.3
21 21.04 З 4 20 км ясно +17.2 +4.2 42 +17 +17 тепло 1010.7 990.8
00 22.04 СЗ 5 20 км ясно +19.2 +0.7 29 +19 +19 тепло 1010.8 991.0
03 22.04 С 4 20 км 6/0
[Ci fib]
+16.7 +3.7 42 +16 +16 тепло 1011.5 991.5
06 22.04 СЗ 4 20 км 6/0
[Ac cast Ci fib]
+17.1 +3.8 41 +17 +19 тепло 1013.1 993.1 +15.9
09 22.04 С 7 20 км 8/0
[Ac trans Ci fib]
+20.2 -0.4 25 +20 +22 тепло 1013.3 993.5
12 22.04 СЗ 6 20 км 3/0
[Ac trans Ci fib]
+21.7 +0.8 25 +21 +26 комфорт 1011.9 992.3
15 22.04 СЗ 5 20 км 5/0
[Ac cast Ci fib]
+22.0 -3.4 18 +21 +22 комфорт 1011.0 991.4
18 22.04 С 2 20 км 6/0
[Ac cast Ci fib]
+18.6 -2.9 23 +19 +19 тепло 1012.4 992.5 +22.9
21 22.04 С 3 20 км 8/0
[Ac trans]
+16.7 -3.4 25 +17 +17 тепло 1013.0 993.0
00 23.04 С 1 20 км 4/0
[Ac trans Ci fib]
+14.3 -4.4 27 +15 +15 тепло 1013.4 993.2
03 23.04 штиль 0 20 км 3/0
[Ac cast Ci fib]
+11.2 -3.7 35 +11 +11 тепло 1013.6 993.2
06 23.04 С 1 20 км 5/0
[Ci fib]
+15.7 -0.1 34 +17 +22 тепло 1014.0 993.9 +10.5
09 23.04 С 3 20 км 3/0
[Ac trans Ci fib]
+19.9 -1.3 24 +20 +31 тепло 1014.2 994.4
12 23.04 СЗ 3 20 км 5/1 600 м
[Cu hum Ci fib]
+22.2 -0.5 22 +21 +30 комфорт 1013.0 993.4
15 23.04 СЗ 2 20 км 8/0
[Ac trans Ci fib]
+22.5 -0.9 21 +22 +24 комфорт 1012.1 992.5
18 23.04 штиль 0 20 км 6/0
[Ac trans Ci fib]
+19.2 -0.8 26 +19 +19 тепло 1013.3 993.5 +22.9
21 23.04 ЮЗ 1 20 км ясно +15.7 -0.1 34 +17 +17 тепло 1013.6 993.5
00 24.04 ЮЗ 1 20 км ясно +11.6 +3.4 57 +12 +12 тепло 1013.4 993.0
03 24.04 Ю 1 20 км 8/4 600 м
[Sc Ac trans Ci fib]
+10.0 +4.2 67 +10 +10 по сезону 1013.4 992.9
06 24.04 Ю 1 20 км 9/3 600 м
[Sc Ac trans Ci fib]
+14.5 +4.2 50 +15 +18 тепло 1013.2 993.1 +9.4
09 24.04 СЗ 1 20 км 10/4 600 м
[Sc Ac cast Ci fib]
+21.2 +7.1 40 +22 +27 комфорт 1013.2 993.5
12 24.04 СЗ 2 20 км {ливн. осадки} 10/5 600 м
[Sc Ac trans Ci fib]
+20.3 +8.6 47 +22 +25 комфорт 1013.2 993.5
15 24.04 штиль 0 20 км 9/5 600 м
[Cu med, cong Ac trans Ci fib]
+22.8 +9.6 43 +24 +26 комфорт 1011.7 992.2
18 24.04 СЗ 4 20 км в посл. час ливневой дождь 10/5 600 м
[Cb calv Ac trans]
+17.7 +12.2 70 +17 +17 тепло 1013.4 993.5 +23.3 0.6
21 24.04 СЗ 3 20 км 8/3 600 м
[Sc Ac trans]
+15.0 +11.0 77 +14 +14 тепло 1014.1 994.0
00 25.04 СЗ 2 20 км 6/0
[Ac trans Ci fib]
+14.3 +10.3 77 +14 +14 тепло 1013.8 993.7
03 25.04 штиль 0 20 км 3/0
[Ac trans Ci fib]
+13.2 +10.0 81 +13 +13 тепло 1014.4 994.2
06 25.04 штиль 0 20 км 5/0
[Ac trans Ci fib]
+16.5 +12.3 76 +16 +23 тепло 1015.6 995.6 +12.2
09 25.04 Ю 2 20 км 6/3 600 м
[Cu hum Ci fib]
+22.3 +8.1 40 +23 +33 комфорт 1014.8 995.2
12 25.04 З 4 20 км 10/6 600 м
[Cu hum Ci fib]
+24.5 +5.8 30 +24 +27 комфорт 1013.5 994.0
15 25.04 ЮЗ 3 20 км 10/3 600 м
[Cu hum Ci]
+24.2 +6.5 32 +24 +26 комфорт 1011.2 991.8
18 25.04 ЮВ 2 20 км 10/0
[Ac trans Ci fib]
+20.2 +7.9 45 +22 +22 комфорт 1011.1 991.4 +25.0
21 25.04 ЮЗ 5 20 км 8/0
[Ac trans Ci fib]
+17.5 +11.3 67 +17 +17 тепло 1011.3 991.4
00 26.04 ЮЗ 3 20 км 4/0
[Ci fib]
+15.3 +10.7 74 +15 +15 тепло 1011.0 991.0
03 26.04 З 1 20 км 5/0
[Ci fib]
+14.1 +10.7 80 +14 +14 тепло 1011.1 991.0
06 26.04 ЮЗ 1 20 км 10/0
[Ci fib]
+17.8 +11.6 67 +19 +24 тепло 1012.0 992.1 +13.7
09 26.04 С 2 20 км 10/3 600 м
[Cu med, cong Ci sp]
+25.8 +5.9 28 +25 +34 комфорт 1011.4 992.1
12 26.04 ЮЗ 3 20 км 9/8 600 м
[Cu med, cong Ci fib]
+27.6 +7.5 28 +27 +29 жарко 1009.8 990.6

 

Местоположение метеостанции Кишинев (Молдова): широта 47.02 долгота 28.98 высота над уровнем моря 173 м.

В архиве по умолчанию представлена погода в Кишиневе за последнюю неделю. Архивные данные за месяц целиком и за предыдущие месяцы, начиная с января 2011 года, Вы можете получить, выбрав интересующий диапазон дат из раскрывающегося списка и нажав кнопку "Ввод!".


*Определитесь, кто Вы:
робот инопланетянин человек

Внимание! Время в таблицах - всемирное. Для получения местного времени необходимо прибавить поправку, которая в Кишиневе равна 2 ч.

Смотрите также архив погоды в соседних городах и на ближайших метеорологических станциях:

Погода в Балцате (Молдова) (5 км)
Погода в Дубоссарах (Молдова) (29 км)
Погода в Кодрах (Молдова) (46 км)
Погода в Тирасполе (Молдова) (49 км)
Погода в Бравичах (Молдова) (57 км)
Погода в Штефан Водэ (Молдова) (67 км)
Погода в Корнестах (Молдова) (76 км)
Погода в Затишье (Одесская область, Украина) (76 км)
Погода в Леове (Молдова) (80 км)
Погода в Заставе (Одесская область, Украина) (81 км)

Пояснения к столбцам:

Ветер - указаны скорость ветра в м/с - средняя за 10 мин, порывы в срок и между сроками (в фигурных скобках) и направление, откуда дует ветер: С - северный, СВ - северо-восточный, В - восточный, ЮВ - юго-восточный, Ю - южный, ЮЗ - юго-западный, З - западный, СЗ - северо-западный.
Видимость - горизонтальная дальность видимости в метрах или километрах. При видимости от 1 до 10 км при отсутствии осадков обычно наблюдается дымка, при ухудшении видимости до 1 км и менее - туман. В сухую погоду видимость может ухудшаться дымом, пылью или мглою.
Явления - указаны атмосферные явления, наблюдавшиеся в срок или в последний час перед сроком; фигурными скобками обозначены явления, наблюдавшиеся между сроками (за 1-3 часа до срока); квадратными скобками обозначены град или гололедные отложения с указанием их диаметра в мм.
Облачность - указаны через наклонную черту общая и нижняя облачность в баллах и высота нижней границы облаков в метрах; квадратными скобками обозначены формы облаков: Ci - перистые, Cs - перисто-слоистые, Cc - перисто-кучевые, Ac - высококучевые, As - высокослоистые, Sc - слоисто-кучевые, Ns - слоисто-дождевые, Cu - кучевые, Cb - кучево-дождевые. Подробнее классификацию облаков см. в Атласе облаков (PDF).
T - Температура воздуха - температура, измеренная на высоте 2 м над землей.
Td - Температура точки росы - температура, при понижении до которой содержащийся в воздухе водяной пар достигнет насыщения.
f - Относительная влажность воздуха - влажноcть воздуха, измеренная на высоте 2 м над землей.
Te - Эффективная температура - температура, которую ощущает одетый по сезону человек в тени. Характеристика душности погоды. При расчете учитывается влияние влажности воздуха и скорости ветра на теплоощущения человека.
Tes - Эффективная температура на солнце - температура, которую ощущает человек, с поправкой на солнечный нагрев. Характеристика знойности погоды. Зависит от высоты солнца над горизонтом, облачности и скорости ветра. Ночью, в пасмурную погоду, а также при ветре 12 м/с и более поправка равна нулю.
P - Атмосферное давление - приведенное к уровню моря атмосферное давление.
Po - Атмосферное давление - измеренное на уровне метеостанции атмосферное давление.
Tmin - Минимальная температура - минимум температуры воздуха на высоте 2 м над землей.
Tmax - Максимальная температура - максимум температуры воздуха на высоте 2 м над землей.
R - Количество осадков - Количество выпавших осадков за период времени, мм. При наведении курсора мыши на число - период времени, за который выпало указанное количество осадков.
R24 - Количество осадков - Количество выпавших осадков за 24 часа, мм.
S - Снежный покров - Высота снежного покрова, см. При наведении курсора мыши на число - состояние снежного покрова и степень покрытия местности в баллах.